| time (UTC) | temp C | wind direction | speed KPH | gust KPH | rain 1hr cm | rain 24hr cm | rain mn cm | humidity % | barometer mb |
| 20260509024555 | 17 | 237 | 4.8 | 19.3 | 0.00 | 0.00 | 0.00 | 58 | 1003.0 |
| 20260509023056 | 18 | 259 | 1.6 | 9.7 | 0.00 | 0.00 | 0.00 | 48 | 1002.6 |
| 20260509021555 | 18 | 153 | 1.6 | 14.5 | 0.00 | 0.00 | 0.00 | 47 | 1002.7 |
| 20260509020057 | 18 | 79 | 1.6 | 9.7 | 0.00 | 0.00 | 0.00 | 47 | 1002.6 |
| 20260509014557 | 18 | 0 | 1.6 | 9.7 | 0.00 | 0.00 | 0.00 | 48 | 1002.5 |
| 20260509013057 | 18 | 0 | 0.0 | 9.7 | 0.00 | 0.00 | 0.00 | 49 | 1002.5 |
| 20260509011553 | 18 | 0 | 4.8 | 12.9 | 0.00 | 0.00 | 0.00 | 47 | 1002.7 |
| 20260509010055 | 18 | 311 | 1.6 | 14.5 | 0.00 | 0.00 | 0.00 | 45 | 1002.5 |
| 20260509004555 | 19 | 300 | 4.8 | 16.1 | 0.00 | 0.00 | 0.00 | 44 | 1002.4 |
| 20260509003058 | 19 | 94 | 3.2 | 16.1 | 0.00 | 0.00 | 0.00 | 44 | 1002.1 |
| 20260509001557 | 19 | 0 | 4.8 | 19.3 | 0.00 | 0.00 | 0.00 | 43 | 1002.1 |
| 20260509000058 | 19 | 170 | 3.2 | 14.5 | 0.00 | 0.00 | 0.00 | 43 | 1002.2 |
| 20260508234556 | 19 | 143 | 1.6 | 12.9 | 0.00 | 0.00 | 0.00 | 44 | 1002.2 |
| 20260508233102 | 19 | 0 | 4.8 | 12.9 | 0.00 | 0.00 | 0.00 | 43 | 1002.1 |
| 20260508231633 | 19 | 321 | 4.8 | 17.7 | 0.00 | 0.00 | 0.00 | 42 | 1002.2 |
| 20260508230059 | 20 | 149 | 3.2 | 20.9 | 0.00 | 0.00 | 0.00 | 43 | 1002.0 |
| 20260508224600 | 20 | 316 | 1.6 | 12.9 | 0.00 | 0.00 | 0.00 | 42 | 1001.8 |
| 20260508223049 | 20 | 125 | 6.4 | 20.9 | 0.00 | 0.00 | 0.00 | 41 | 1001.7 |
| 20260508221559 | 20 | 110 | 4.8 | 17.7 | 0.00 | 0.00 | 0.00 | 42 | 1001.8 |
| 20260508220053 | 20 | 265 | 3.2 | 22.5 | 0.00 | 0.00 | 0.00 | 42 | 1001.7 |
| 20260508214626 | 20 | 165 | 8.0 | 24.1 | 0.00 | 0.00 | 0.00 | 41 | 1001.8 |
| 20260508213056 | 20 | 324 | 3.2 | 22.5 | 0.00 | 0.00 | 0.00 | 40 | 1002.1 |
| 20260508211558 | 20 | 157 | 3.2 | 17.7 | 0.00 | 0.00 | 0.00 | 40 | 1002.1 |
| 20260508210057 | 20 | 72 | 4.8 | 20.9 | 0.00 | 0.00 | 0.00 | 39 | 1002.5 |
| 20260508204556 | 20 | 124 | 11.3 | 25.7 | 0.00 | 0.00 | 0.00 | 39 | 1002.7 |
| 20260508203115 | 20 | 153 | 12.9 | 27.4 | 0.00 | 0.00 | 0.00 | 39 | 1002.9 |
| 20260508201555 | 20 | 98 | 9.7 | 24.1 | 0.00 | 0.00 | 0.00 | 38 | 1003.1 |
| 20260508194555 | 20 | 134 | 8.0 | 30.6 | 0.00 | 0.00 | 0.00 | 38 | 1003.3 |
| 20260508193137 | 20 | 111 | 14.5 | 35.4 | 0.00 | 0.00 | 0.00 | 38 | 1003.3 |
| 20260508191602 | 20 | 169 | 6.4 | 29.0 | 0.00 | 0.00 | 0.00 | 37 | 1003.5 |
| 20260508190051 | 20 | 34 | 14.5 | 29.0 | 0.00 | 0.00 | 0.00 | 37 | 1003.8 |
| 20260508184553 | 20 | 145 | 8.0 | 20.9 | 0.00 | 0.00 | 0.00 | 38 | 1003.9 |
| 20260508183052 | 20 | 230 | 12.9 | 32.2 | 0.00 | 0.00 | 0.00 | 38 | 1004.4 |
| 20260508181556 | 19 | 124 | 8.0 | 25.7 | 0.00 | 0.00 | 0.00 | 37 | 1004.5 |
| 20260508180105 | 19 | 100 | 8.0 | 22.5 | 0.00 | 0.00 | 0.00 | 37 | 1004.8 |
| 20260508174557 | 18 | 206 | 9.7 | 27.4 | 0.00 | 0.00 | 0.00 | 39 | 1004.8 |
| 20260508173053 | 18 | 161 | 9.7 | 37.0 | 0.00 | 0.00 | 0.00 | 39 | 1005.1 |
| 20260508171552 | 18 | 116 | 17.7 | 29.0 | 0.00 | 0.00 | 0.00 | 40 | 1005.5 |
| 20260508170049 | 18 | 111 | 12.9 | 35.4 | 0.00 | 0.00 | 0.00 | 40 | 1006.0 |
| 20260508164558 | 17 | 98 | 9.7 | 40.2 | 0.00 | 0.00 | 0.00 | 44 | 1006.3 |
| 20260508163051 | 17 | 113 | 29.0 | 41.8 | 0.00 | 0.00 | 0.00 | 43 | 1006.5 |
| 20260508161556 | 17 | 127 | 12.9 | 37.0 | 0.00 | 0.00 | 0.00 | 45 | 1006.7 |
| 20260508160052 | 16 | 118 | 20.9 | 35.4 | 0.00 | 0.00 | 0.00 | 47 | 1006.9 |
| 20260508154553 | 16 | 116 | 22.5 | 35.4 | 0.00 | 0.00 | 0.00 | 47 | 1007.1 |
| 20260508153052 | 16 | 108 | 22.5 | 33.8 | 0.00 | 0.00 | 0.00 | 47 | 1007.3 |
| 20260508151553 | 16 | 115 | 17.7 | 37.0 | 0.00 | 0.00 | 0.00 | 49 | 1007.5 |
| 20260508150055 | 15 | 108 | 9.7 | 25.7 | 0.00 | 0.00 | 0.00 | 50 | 1007.6 |
| 20260508144556 | 15 | 107 | 11.3 | 24.1 | 0.00 | 0.00 | 0.00 | 51 | 1007.7 |
| 20260508143054 | 13 | 171 | 16.1 | 30.6 | 0.00 | 0.00 | 0.00 | 52 | 1007.8 |
| 20260508141554 | 13 | 113 | 16.1 | 33.8 | 0.00 | 0.00 | 0.00 | 52 | 1007.9 |
| 20260508140104 | 13 | 108 | 19.3 | 27.4 | 0.00 | 0.00 | 0.00 | 53 | 1008.0 |
| 20260508134549 | 12 | 104 | 11.3 | 24.1 | 0.00 | 0.00 | 0.00 | 54 | 1008.1 |
| 20260508133051 | 12 | 97 | 11.3 | 22.5 | 0.00 | 0.00 | 0.00 | 53 | 1008.0 |
| 20260508131555 | 12 | 92 | 4.8 | 20.9 | 0.00 | 0.00 | 0.00 | 53 | 1007.9 |
| 20260508130052 | 11 | 97 | 1.6 | 9.7 | 0.00 | 0.00 | 0.00 | 57 | 1008.0 |
| 20260508124553 | 11 | 107 | 0.0 | 8.0 | 0.00 | 0.00 | 0.00 | 56 | 1007.9 |
| 20260508123055 | 10 | 140 | 1.6 | 14.5 | 0.00 | 0.00 | 0.00 | 57 | 1007.9 |
| 20260508121557 | 10 | 0 | 4.8 | 14.5 | 0.00 | 0.00 | 0.00 | 58 | 1007.9 |
| 20260508120056 | 10 | 117 | 3.2 | 9.7 | 0.00 | 0.00 | 0.00 | 60 | 1007.9 |
| 20260508114609 | 10 | 98 | 3.2 | 16.1 | 0.00 | 0.00 | 0.00 | 59 | 1007.7 |
| 20260508113103 | 10 | 0 | 4.8 | 17.7 | 0.00 | 0.00 | 0.00 | 58 | 1007.6 |
| 20260508111600 | 10 | 113 | 0.0 | 16.1 | 0.00 | 0.00 | 0.00 | 57 | 1007.5 |
| 20260508110051 | 10 | 0 | 3.2 | 12.9 | 0.00 | 0.00 | 0.00 | 58 | 1007.5 |
| 20260508104553 | 10 | 260 | 3.2 | 12.9 | 0.00 | 0.00 | 0.00 | 57 | 1007.4 |
| 20260508103053 | 10 | 0 | 3.2 | 9.7 | 0.00 | 0.00 | 0.00 | 59 | 1007.4 |
| 20260508101554 | 10 | 142 | 1.6 | 9.7 | 0.00 | 0.00 | 0.00 | 59 | 1007.4 |
| 20260508100053 | 10 | 117 | 0.0 | 8.0 | 0.00 | 0.00 | 0.00 | 59 | 1007.3 |
| 20260508094555 | 10 | 304 | 1.6 | 9.7 | 0.00 | 0.00 | 0.00 | 59 | 1007.3 |
| 20260508093054 | 10 | 0 | 1.6 | 8.0 | 0.00 | 0.00 | 0.00 | 60 | 1007.3 |
| 20260508091608 | 9 | 360 | 3.2 | 16.1 | 0.00 | 0.00 | 0.00 | 60 | 1007.3 |
| 20260508090104 | 9 | 0 | 1.6 | 9.7 | 0.00 | 0.00 | 0.00 | 60 | 1007.3 |
| 20260508084552 | 10 | 0 | 1.6 | 8.0 | 0.00 | 0.00 | 0.00 | 60 | 1007.2 |
| 20260508083107 | 10 | 104 | 1.6 | 8.0 | 0.00 | 0.00 | 0.00 | 59 | 1007.1 |
| 20260508081551 | 10 | 298 | 0.0 | 8.0 | 0.00 | 0.00 | 0.00 | 58 | 1007.2 |
| 20260508080101 | 10 | 0 | 1.6 | 8.0 | 0.00 | 0.00 | 0.00 | 57 | 1007.1 |
| 20260508074555 | 10 | 103 | 0.0 | 8.0 | 0.00 | 0.00 | 0.00 | 57 | 1007.1 |
| 20260508073052 | 10 | 0 | 1.6 | 9.7 | 0.00 | 0.00 | 0.00 | 56 | 1007.0 |
| 20260508071555 | 10 | 119 | 8.0 | 17.7 | 0.00 | 0.00 | 0.00 | 54 | 1007.2 |
| 20260508070054 | 10 | 140 | 6.4 | 16.1 | 0.00 | 0.00 | 0.00 | 54 | 1007.1 |
| 20260508064556 | 10 | 124 | 1.6 | 11.3 | 0.00 | 0.00 | 0.00 | 54 | 1007.3 |
| 20260508063103 | 11 | 100 | 3.2 | 12.9 | 0.00 | 0.00 | 0.00 | 53 | 1007.7 |
| 20260508061554 | 11 | 111 | 4.8 | 14.5 | 0.00 | 0.00 | 0.00 | 52 | 1007.6 |
| 20260508060055 | 11 | 359 | 3.2 | 14.5 | 0.00 | 0.00 | 0.00 | 51 | 1007.8 |
| 20260508054555 | 11 | 130 | 3.2 | 16.1 | 0.00 | 0.00 | 0.00 | 49 | 1007.8 |
| 20260508053101 | 11 | 102 | 3.2 | 14.5 | 0.00 | 0.00 | 0.00 | 49 | 1007.8 |
| 20260508051606 | 11 | 139 | 0.0 | 9.7 | 0.00 | 0.00 | 0.00 | 50 | 1007.8 |
| 20260508050058 | 11 | 0 | 1.6 | 9.7 | 0.00 | 0.00 | 0.00 | 51 | 1007.5 |
| 20260508044551 | 11 | 338 | 0.0 | 8.0 | 0.00 | 0.00 | 0.00 | 49 | 1007.7 |
| 20260508043056 | 11 | 160 | 1.6 | 9.7 | 0.00 | 0.00 | 0.00 | 48 | 1007.8 |
| 20260508041555 | 11 | 268 | 1.6 | 12.9 | 0.00 | 0.00 | 0.00 | 48 | 1007.6 |
| 20260508040054 | 12 | 300 | 3.2 | 16.1 | 0.00 | 0.00 | 0.00 | 46 | 1007.5 |
| 20260508034552 | 12 | 275 | 1.6 | 8.0 | 0.00 | 0.00 | 0.00 | 46 | 1007.6 |
| 20260508033056 | 12 | 0 | 0.0 | 8.0 | 0.00 | 0.00 | 0.00 | 45 | 1007.7 |
| 20260508031556 | 12 | 30 | 1.6 | 9.7 | 0.00 | 0.00 | 0.00 | 44 | 1007.6 |
| 20260508030055 | 12 | 259 | 0.0 | 8.0 | 0.00 | 0.00 | 0.00 | 41 | 1007.7 |